TimeCEST,TemperatureF,Dew PointF,Humidity,Sea Level PressureIn,VisibilityMPH,Wind Direction,Wind SpeedMPH,Gust SpeedMPH,PrecipitationIn,Events,Conditions,WindDirDegrees,DateUTC
12:15 AM,42.8,42.8,100,29.98,3.7,South,2.2,-,N/A,,Unknown,180,2012-10-10 22:15:00
12:40 AM,42.8,42.8,100,29.98,3.1,South,2.2,-,N/A,,Mostly Cloudy,190,2012-10-10 22:40:00
12:45 AM,42.8,42.8,100,29.98,3.1,South,2.2,-,N/A,,Mostly Cloudy,190,2012-10-10 22:45:00
1:15 AM,42.8,42.8,100,29.98,3.1,SSE,2.2,-,N/A,,Partly Cloudy,160,2012-10-10 23:15:00
1:36 AM,42.8,42.8,100,29.98,1.9,SSE,2.2,-,N/A,,Clear,160,2012-10-10 23:36:00
1:45 AM,41.0,41.0,100,29.98,1.9,SSE,2.2,-,N/A,,Clear,160,2012-10-10 23:45:00
2:15 AM,37.4,37.4,100,29.98,1.2,Calm,Calm,-,N/A,,Clear,0,2012-10-11 00:15:00
2:37 AM,37.4,37.4,100,29.98,1.2,ESE,2.2,-,N/A,,Clear,120,2012-10-11 00:37:00
2:45 AM,37.4,37.4,100,29.98,1.2,SE,2.2,-,N/A,,Clear,130,2012-10-11 00:45:00
3:00 AM,-9999,-9999,N/A,-9999,1.9,Variable,4.5,-,N/A,Fog,Fog,0,2012-10-11 01:00:00
3:45 AM,-9999,-9999,N/A,-9999,0.9,Variable,4.5,-,N/A,Fog,Fog,0,2012-10-11 01:45:00
4:15 AM,37.4,37.4,100,29.98,0.9,Calm,Calm,-,N/A,,Clear,0,2012-10-11 02:15:00
4:45 AM,35.6,35.6,100,29.98,0.9,SSE,2.2,-,N/A,,Clear,160,2012-10-11 02:45:00
5:15 AM,35.6,35.6,100,29.98,1.2,SSE,2.2,-,N/A,,Clear,150,2012-10-11 03:15:00
5:45 AM,33.8,33.8,100,30.01,1.2,SSE,2.2,-,N/A,,Clear,160,2012-10-11 03:45:00
6:00 AM,-9999,-9999,N/A,-9999,3.1,Variable,4.5,-,N/A,,Scattered Clouds,0,2012-10-11 04:00:00
6:15 AM,33.8,33.8,100,30.01,1.2,SE,2.2,-,N/A,,Clear,140,2012-10-11 04:15:00
6:32 AM,33.8,33.8,100,30.01,3.1,SE,2.2,-,N/A,,Partly Cloudy,140,2012-10-11 04:32:00
6:45 AM,-9999,-9999,N/A,-9999,0.9,Variable,4.5,-,N/A,,Scattered Clouds,0,2012-10-11 04:45:00
6:59 AM,35.6,33.8,93,30.01,0.5,North,2.2,-,N/A,Fog,Fog,360,2012-10-11 04:59:00
7:00 AM,-9999,-9999,N/A,-9999,0.9,Variable,4.5,-,N/A,,Scattered Clouds,0,2012-10-11 05:00:00
7:11 AM,33.8,33.8,100,30.01,0.3,NW,2.2,-,N/A,Fog,Fog,310,2012-10-11 05:11:00
7:15 AM,33.8,33.8,100,30.01,0.3,WNW,2.2,-,N/A,Fog,Fog,300,2012-10-11 05:15:00
7:23 AM,35.6,35.6,100,30.01,0.1,Calm,Calm,-,N/A,Fog,Fog,0,2012-10-11 05:23:00
7:45 AM,37.4,37.4,100,30.01,0.1,Calm,Calm,-,N/A,Fog,Fog,0,2012-10-11 05:45:00
8:15 AM,39.2,39.2,100,30.01,0.1,SSE,2.2,-,N/A,Fog,Fog,150,2012-10-11 06:15:00
9:00 AM,-9999,-9999,N/A,-9999,0.9,Variable,4.5,-,N/A,,Scattered Clouds,0,2012-10-11 07:00:00
9:15 AM,41.0,41.0,100,30.04,0.1,Calm,Calm,-,N/A,Fog,Fog,0,2012-10-11 07:15:00
9:45 AM,-9999,-9999,N/A,-9999,0.9,Variable,4.5,-,N/A,,Scattered Clouds,0,2012-10-11 07:45:00
10:15 AM,42.8,42.8,100,30.04,0.2,SW,2.2,-,N/A,Fog,Fog,230,2012-10-11 08:15:00
10:42 AM,44.6,44.6,100,30.04,0.4,SW,2.2,-,N/A,Fog,Fog,220,2012-10-11 08:42:00
10:45 AM,44.6,44.6,100,30.04,0.4,SSW,2.2,-,N/A,Fog,Fog,210,2012-10-11 08:45:00
10:48 AM,44.6,44.6,100,30.04,0.6,WSW,2.2,-,N/A,Fog,Fog,250,2012-10-11 08:48:00
11:06 AM,44.6,44.6,100,30.04,1.2,WNW,2.2,-,N/A,,Mostly Cloudy,290,2012-10-11 09:06:00
11:14 AM,46.4,46.4,100,30.04,3.1,NNW,2.2,-,N/A,,Mostly Cloudy,340,2012-10-11 09:14:00
11:22 AM,-9999,-9999,N/A,-9999,3.1,Variable,4.5,-,N/A,,Scattered Clouds,0,2012-10-11 09:22:00
11:45 AM,51.8,44.6,76,30.04,-9999.0,Calm,Calm,-,N/A,,Clear,0,2012-10-11 09:45:00
12:15 PM,51.8,41.0,67,30.04,-9999.0,Calm,Calm,-,N/A,,Clear,0,2012-10-11 10:15:00
12:45 PM,-9999,-9999,N/A,-9999,6.2,Variable,4.5,-,N/A,,Clear,0,2012-10-11 10:45:00
1:15 PM,55.4,35.6,47,30.01,6.2,SW,2.2,-,N/A,,Partly Cloudy,230,2012-10-11 11:15:00
1:45 PM,57.2,33.8,41,30.01,6.2,WSW,2.2,-,N/A,,Partly Cloudy,250,2012-10-11 11:45:00
2:15 PM,55.4,35.6,47,30.01,6.2,WSW,4.5,-,N/A,,Partly Cloudy,250,2012-10-11 12:15:00
2:45 PM,57.2,35.6,44,29.98,6.2,SW,4.5,-,N/A,,Partly Cloudy,230,2012-10-11 12:45:00
3:15 PM,57.2,35.6,44,29.98,-9999.0,West,4.5,-,N/A,,Clear,260,2012-10-11 13:15:00
3:45 PM,-9999,-9999,N/A,-9999,6.2,Variable,4.5,-,N/A,,Clear,0,2012-10-11 13:45:00
4:15 PM,57.2,37.4,48,29.95,-9999.0,NW,2.2,-,N/A,,Clear,310,2012-10-11 14:15:00
4:45 PM,57.2,37.4,48,29.95,-9999.0,West,2.2,-,N/A,,Clear,270,2012-10-11 14:45:00
5:45 PM,55.4,41.0,58,29.95,-9999.0,SSE,2.2,-,N/A,,Clear,160,2012-10-11 15:45:00
6:15 PM,53.6,41.0,62,29.95,-9999.0,SSE,4.5,-,N/A,,Clear,150,2012-10-11 16:15:00
6:45 PM,-9999,-9999,N/A,-9999,6.2,Variable,4.5,-,N/A,,Clear,0,2012-10-11 16:45:00
7:15 PM,48.2,42.8,82,29.95,-9999.0,SE,2.2,-,N/A,,Clear,130,2012-10-11 17:15:00
7:45 PM,50.0,44.6,82,29.95,6.2,SE,2.2,-,N/A,,Mostly Cloudy,130,2012-10-11 17:45:00
8:15 PM,51.8,42.8,71,29.95,6.2,East,4.5,-,N/A,,Mostly Cloudy,100,2012-10-11 18:15:00
8:45 PM,50.0,42.8,76,29.95,6.2,ESE,4.5,-,N/A,,Mostly Cloudy,110,2012-10-11 18:45:00
9:45 PM,-9999,-9999,N/A,-9999,6.2,Variable,4.5,-,N/A,,Clear,0,2012-10-11 19:45:00
10:15 PM,50.0,42.8,76,29.95,6.2,SSE,4.5,-,N/A,,Mostly Cloudy,150,2012-10-11 20:15:00
10:45 PM,50.0,44.6,82,29.95,6.2,South,4.5,-,N/A,,Mostly Cloudy,170,2012-10-11 20:45:00
11:15 PM,51.8,44.6,76,29.95,-9999.0,SSE,4.5,-,N/A,,Clear,150,2012-10-11 21:15:00
11:45 PM,51.8,46.4,82,29.95,-9999.0,SSE,4.5,-,N/A,,Clear,150,2012-10-11 21:45:00